Provo, UT

9:39 AM MST on November 21, 2019 (GMT -0700)
Provo Municipal

Weather History for KPVU - September, 2019

Change the Weather History Date:

Wednesday, September 11, 2019

  Actual Average Record
Temperature  
Mean Temperature 57 °F -  
Max Temperature 64 °F 77 °F 94 °F (1990)
Min Temperature 48 °F 49 °F 41 °F (2005)
Degree Days  
Heating Degree Days 8    
Growing Degree Days 7 (Base 50)    
Moisture  
Dew Point 47 °F    
Average Humidity 73    
Maximum Humidity 90    
Minimum Humidity 52    
Precipitation  
Precipitation 0.41 in - - ()
Sea Level Pressure  
Sea Level Pressure 30.04 in    
Wind  
Wind Speed 10 mph (SE)    
Max Wind Speed 20 mph    
Max Gust Speed 26 mph    
Visibility 10 miles    
Events Rain , Thunderstorm    
Averages and records for this station are not official NWS values.
T = Trace of Precipitation, MM = Missing Value Source: NWS Daily Summary

Daily Weather History Graph

Daily Weather History Graph

Search for Another Location

Airport or City:

Astronomy

Sep. 11, 2019 Rise Set
Actual Time 7:03 AM MDT 7:42 PM MDT
Civil Twilight 6:36 AM MDT 8:09 PM MDT
Nautical Twilight 6:03 AM MDT 8:42 PM MDT
Astronomical Twilight 5:30 AM MDT 9:15 PM MDT
Moon 6:57 PM MDT (9/11) 4:29 AM MDT (9/11)
Length of Visible Light 13h 33m
Length of Day
12h 38m
Waxing Gibbous, 95% of the Moon is Illuminated
Sep 11
Waxing Gibbous
Sep 13
Full
Sep 21
Last Quarter
Sep 28
New
Oct 5
First Quarter

Hourly Weather History & Observations

Time (MDT) Temp. Dew Point Humidity Pressure Visibility Wind Dir Wind Speed Gust Speed Precip Events Conditions
12:56 AM 64.0 °F 46.9 °F 54% 29.71 in 10.0 mi NNW 10.4 mph - N/A   Overcast
1:49 AM 64.4 °F 48.2 °F 56% 29.91 in 10.0 mi WNW 18.4 mph 25.3 mph 0.00 in Rain Light Rain
1:56 AM 64.0 °F 46.9 °F 54% 29.78 in 10.0 mi WNW 17.3 mph 25.3 mph 0.00 in Thunderstorm Mostly Cloudy
2:44 AM 60.8 °F 51.8 °F 72% 29.99 in 9.0 mi WNW 15.0 mph 21.9 mph 0.01 in Rain , Thunderstorm Rain
2:56 AM 57.9 °F 52.0 °F 81% 29.86 in 10.0 mi NW 11.5 mph - 0.02 in Rain , Thunderstorm Light Rain
3:05 AM 57.2 °F 51.8 °F 82% 30.03 in 9.0 mi Variable 4.6 mph - 0.02 in Rain Rain
3:56 AM 54.0 °F 51.1 °F 90% 29.89 in 10.0 mi East 12.7 mph - 0.16 in Rain Light Rain
4:56 AM 54.0 °F 48.9 °F 83% 29.88 in 10.0 mi SE 16.1 mph - 0.06 in Rain Light Rain
5:56 AM 55.0 °F 46.0 °F 72% 29.91 in 10.0 mi SE 8.1 mph - 0.00 in Rain Light Rain
6:56 AM 55.0 °F 46.0 °F 72% 29.91 in 10.0 mi Calm Calm - 0.00 in   Overcast
7:56 AM 54.0 °F 46.9 °F 77% 29.95 in 10.0 mi SE 3.5 mph - N/A   Overcast
8:56 AM 57.0 °F 46.0 °F 67% 29.97 in 10.0 mi SSE 11.5 mph - N/A   Mostly Cloudy
9:56 AM 55.9 °F 45.0 °F 67% 30.01 in 10.0 mi SSW 8.1 mph - 0.00 in Rain Light Rain
10:56 AM 52.0 °F 48.9 °F 89% 30.06 in 4.0 mi South 10.4 mph - 0.13 in Rain Rain
11:56 AM 51.1 °F 46.9 °F 86% 30.08 in 10.0 mi SE 11.5 mph - 0.02 in Rain Light Rain
12:56 PM 55.0 °F 46.0 °F 72% 30.08 in 10.0 mi East 5.8 mph - 0.01 in   Overcast
1:56 PM 57.9 °F 44.1 °F 60% 30.08 in 10.0 mi SSW 3.5 mph - N/A   Mostly Cloudy
2:56 PM 54.0 °F 46.0 °F 75% 30.14 in 10.0 mi NNW 19.6 mph 26.5 mph 0.00 in Rain Light Rain
3:56 PM 51.1 °F 46.0 °F 83% 30.16 in 10.0 mi NE 11.5 mph - 0.01 in Rain Light Rain
4:56 PM 61.0 °F 43.0 °F 52% 30.14 in 10.0 mi South 5.8 mph - 0.00 in   Mostly Cloudy
5:56 PM 59.0 °F 45.0 °F 60% 30.15 in 10.0 mi SSW 8.1 mph - N/A   Mostly Cloudy
6:56 PM 57.9 °F 45.0 °F 62% 30.16 in 10.0 mi SE 4.6 mph - N/A   Scattered Clouds
7:56 PM 54.0 °F 45.0 °F 72% 30.19 in 10.0 mi North 4.6 mph - N/A   Scattered Clouds
8:56 PM 52.0 °F 45.0 °F 77% 30.20 in 10.0 mi NE 5.8 mph - N/A   Partly Cloudy
9:56 PM 52.0 °F 46.0 °F 80% 30.21 in 10.0 mi East 3.5 mph - N/A   Clear
10:56 PM 50.0 °F 46.0 °F 86% 30.24 in 10.0 mi Calm Calm - N/A   Clear
11:56 PM 48.0 °F 45.0 °F 89% 30.26 in 10.0 mi East 3.5 mph - N/A   Clear